RYS3063 EPKT-LGZA

Flight info

Callsign RYS3063
Flight time N/A
Altitude 37000
Route BABKO M866 NIDOK DCT PARAK DCT TISAK DCT BGD DCT NANER DCT REDVA UL616 KOGAT DCT GOSTI DCT BITLA UN731 YNN UT352 ASTUS
Aircraft B738/M-SDE3FGILRWY/SB1

Departure

Time 2026-04-30 11:58
Airport Katowice Wojciech Korfanty International Airport (EPKT)

Arrival

Time N/A
Airport Zakynthos International Airport Dionysios Solomos (LGZA)
Time Latitude Longitude Altitude Speed Heading
2026-04-30 11:23 50.47181 19.07483 984 ft 0 kts 180°
2026-04-30 11:47 50.47187 19.07483 983 ft 2 kts 176°
2026-04-30 11:47 50.47202 19.07477 983 ft 2 kts 157°
2026-04-30 11:47 50.47215 19.07465 983 ft 2 kts 142°
2026-04-30 11:48 50.47226 19.07449 983 ft 2 kts 126°
2026-04-30 11:48 50.47233 19.07429 982 ft 2 kts 111°
2026-04-30 11:48 50.47236 19.07406 982 ft 2 kts 95°
2026-04-30 11:48 50.47237 19.07389 982 ft 0 kts 87°
2026-04-30 11:49 50.47237 19.07388 982 ft 0 kts 87°
2026-04-30 11:50 50.47237 19.07426 982 ft 7 kts 90°
2026-04-30 11:51 50.47236 19.07545 984 ft 14 kts 91°
2026-04-30 11:51 50.47235 19.07632 984 ft 16 kts 90°
2026-04-30 11:51 50.47235 19.07812 984 ft 16 kts 90°
2026-04-30 11:51 50.47236 19.08001 984 ft 17 kts 89°
2026-04-30 11:52 50.47234 19.08197 984 ft 18 kts 90°
2026-04-30 11:52 50.47234 19.08390 986 ft 17 kts 90°
2026-04-30 11:52 50.47232 19.08586 986 ft 18 kts 90°
2026-04-30 11:52 50.47234 19.08780 989 ft 17 kts 89°
2026-04-30 11:53 50.47232 19.08957 991 ft 15 kts 91°
2026-04-30 11:53 50.47231 19.09121 994 ft 14 kts 90°
2026-04-30 11:53 50.47231 19.09309 995 ft 18 kts 90°
2026-04-30 11:53 50.47231 19.09507 999 ft 17 kts 90°
2026-04-30 11:54 50.47231 19.09693 1003 ft 16 kts 90°
2026-04-30 11:54 50.47230 19.09852 1008 ft 13 kts 90°
2026-04-30 11:54 50.47232 19.09991 1012 ft 10 kts 80°
2026-04-30 11:54 50.47265 19.10082 1013 ft 9 kts 49°
2026-04-30 11:55 50.47306 19.10161 1014 ft 9 kts 52°
2026-04-30 11:55 50.47353 19.10256 1012 ft 12 kts 52°
2026-04-30 11:55 50.47409 19.10369 1012 ft 14 kts 51°
2026-04-30 11:55 50.47492 19.10446 1010 ft 15 kts
2026-04-30 11:56 50.47590 19.10442 1008 ft 6 kts 343°
2026-04-30 11:56 50.47597 19.10407 1008 ft 4 kts 266°
2026-04-30 11:56 50.47596 19.10392 1008 ft 0 kts 268°
2026-04-30 11:57 50.47596 19.10367 1008 ft 8 kts 269°
2026-04-30 11:57 50.47597 19.10010 1002 ft 66 kts 270°
2026-04-30 11:57 50.47600 19.08963 985 ft 126 kts 270°
2026-04-30 11:57 50.47600 19.07335 1028 ft 164 kts 273°
2026-04-30 11:58 50.47622 19.05592 1574 ft 162 kts 272°
2026-04-30 11:58 50.47653 19.03892 2200 ft 159 kts 274°
2026-04-30 11:58 50.47667 19.02104 2665 ft 168 kts 272°
2026-04-30 11:58 50.47648 19.00219 2959 ft 182 kts 274°
2026-04-30 11:59 50.47623 18.98178 3234 ft 198 kts 268°
2026-04-30 11:59 50.47189 18.96034 3482 ft 220 kts 238°
2026-04-30 11:59 50.45988 18.94433 3793 ft 239 kts 202°
2026-04-30 11:59 50.44324 18.94239 4101 ft 253 kts 162°
2026-04-30 12:00 50.42857 18.95695 4498 ft 259 kts 127°
2026-04-30 12:00 50.41884 18.98109 4943 ft 267 kts 115°
2026-04-30 12:00 50.40979 19.00653 5557 ft 270 kts 117°
2026-04-30 12:00 50.40002 19.03182 6201 ft 274 kts 120°
2026-04-30 12:01 50.38729 19.05355 6821 ft 282 kts 143°
2026-04-30 12:01 50.36939 19.06661 7510 ft 287 kts 159°
2026-04-30 12:01 50.35034 19.07560 8127 ft 292 kts 161°
2026-04-30 12:01 50.33082 19.08461 8774 ft 295 kts 160°
2026-04-30 12:02 50.31171 19.09406 9432 ft 298 kts 158°
2026-04-30 12:02 50.29197 19.10441 10098 ft 301 kts 157°
2026-04-30 12:02 50.27200 19.11520 10758 ft 306 kts 156°
2026-04-30 12:02 50.25142 19.12648 11127 ft 322 kts 156°
2026-04-30 12:03 50.23016 19.13808 11766 ft 327 kts 157°
2026-04-30 12:03 50.18720 19.16137 13140 ft 334 kts 156°
2026-04-30 12:03 50.16530 19.17325 13826 ft 338 kts 156°
2026-04-30 12:04 50.14385 19.18487 14503 ft 342 kts 156°
2026-04-30 12:04 50.12125 19.19710 15216 ft 345 kts 156°
2026-04-30 12:04 50.09865 19.20931 15876 ft 350 kts 156°
2026-04-30 12:04 50.07584 19.22163 16533 ft 353 kts 155°
2026-04-30 12:05 50.05250 19.23421 17212 ft 357 kts 155°
2026-04-30 12:05 50.02890 19.24690 17845 ft 361 kts 155°
2026-04-30 12:05 50.00524 19.25962 18500 ft 364 kts 155°
2026-04-30 12:05 49.98127 19.27248 19157 ft 367 kts 155°
2026-04-30 12:06 49.95768 19.28516 19739 ft 372 kts 155°
2026-04-30 12:06 49.93311 19.29836 20373 ft 376 kts 155°
2026-04-30 12:06 49.90828 19.31167 21015 ft 378 kts 155°
2026-04-30 12:06 49.88487 19.32421 21544 ft 382 kts 155°
2026-04-30 12:07 49.85947 19.33779 22111 ft 386 kts 155°
2026-04-30 12:07 49.83395 19.35140 22670 ft 389 kts 155°
2026-04-30 12:07 49.80877 19.36484 23152 ft 393 kts 154°
2026-04-30 12:07 49.78258 19.37880 23696 ft 396 kts 155°
2026-04-30 12:08 49.76035 19.39064 24090 ft 400 kts 155°
2026-04-30 12:08 49.74263 19.40003 24528 ft 399 kts 154°
2026-04-30 12:08 49.70767 19.41859 25084 ft 406 kts 154°
2026-04-30 12:08 49.67739 19.43463 25704 ft 406 kts 155°
2026-04-30 12:09 49.65618 19.44584 26068 ft 408 kts 154°
2026-04-30 12:09 49.63081 19.45886 26433 ft 413 kts 156°
2026-04-30 12:09 49.60423 19.47015 26885 ft 418 kts 161°
2026-04-30 12:09 49.57619 19.47849 27321 ft 423 kts 166°
2026-04-30 12:10 49.55227 19.48382 27639 ft 427 kts 167°
2026-04-30 12:10 49.51714 19.49040 28186 ft 429 kts 168°
2026-04-30 12:10 49.48467 19.49602 28608 ft 432 kts 168°
2026-04-30 12:10 49.45809 19.50062 28979 ft 434 kts 169°
2026-04-30 12:11 49.43279 19.50508 29287 ft 436 kts 168°
2026-04-30 12:11 49.40929 19.50930 29609 ft 438 kts 168°
2026-04-30 12:11 49.37681 19.51522 29982 ft 441 kts 168°
2026-04-30 12:11 49.34694 19.52075 30429 ft 441 kts 168°
2026-04-30 12:12 49.31655 19.52645 30737 ft 445 kts 168°
2026-04-30 12:12 49.28596 19.53223 31092 ft 447 kts 168°
2026-04-30 12:12 49.25533 19.53805 31379 ft 449 kts 168°
2026-04-30 12:12 49.22461 19.54390 31698 ft 450 kts 169°
2026-04-30 12:13 49.19350 19.54984 31985 ft 452 kts 169°
2026-04-30 12:13 49.16362 19.55551 32236 ft 453 kts 169°
2026-04-30 12:13 49.13223 19.56148 32473 ft 455 kts 169°
2026-04-30 12:13 49.10085 19.56743 32708 ft 457 kts 169°
2026-04-30 12:14 49.06952 19.57337 32936 ft 459 kts 169°
2026-04-30 12:14 49.03762 19.57943 33156 ft 461 kts 170°
2026-04-30 12:14 49.00615 19.58539 33407 ft 461 kts 170°
2026-04-30 12:14 48.97439 19.59140 33633 ft 463 kts 170°
2026-04-30 12:15 48.94259 19.59741 33858 ft 464 kts 170°
2026-04-30 12:15 48.91110 19.60333 34066 ft 466 kts 170°
2026-04-30 12:15 48.87906 19.60935 34319 ft 467 kts 170°
2026-04-30 12:15 48.84653 19.61546 34561 ft 469 kts 171°
2026-04-30 12:16 48.81479 19.62142 34959 ft 465 kts 171°
2026-04-30 12:16 48.78270 19.62744 35215 ft 465 kts 171°
2026-04-30 12:16 48.75087 19.63340 35503 ft 465 kts 171°
2026-04-30 12:16 48.71873 19.63941 35761 ft 465 kts 171°
2026-04-30 12:17 48.65605 19.65110 36285 ft 465 kts 172°
2026-04-30 12:17 48.62340 19.65718 36500 ft 466 kts 172°